一网星座-0357星 (ONEWEB-0357 )

导读 | 星芒AI

ONEWEB-0357 是 OneWeb 卫星星座计划中的一颗低轨通信卫星,旨在为全球提供高速互联网服务。该卫星由阿丽亚娜集团制造,于2022年发射,运行在约1200公里高的近极地轨道,支持偏远和农村地区的宽带接入。OneWeb 项目由多个卫星批次组成,ONEWEB-0357 属于第三批发射的卫星之一,采用先进通信技术,具备高容量和低延迟特性,助力实现全球数字连接。

基本信息
目录编号:
49219
目录名称:
ONEWEB-0357
国际标识:
2021-083AK
轨道中心:
EARTH
卫星名称:
一网星座-0357星
卫星全名:
一网星座-0357星 (ONEWEB-0357 )
卫星状态:
在轨 (已飞行1553 天)
发射日期:
2021-09-14 UTC
国别 :
英国 (GB)
星等 :
--
轨道信息
数据来源 国际轨道数据
星历时间: 2025-12-15T05:20:43+0800
21小时前
查看轨道信息
半长轴: 7559.92km
偏心率: 0.0001762
轨道倾角: 87.921°
近地点辐角 77.588°
升交点赤经 311.187°
平近点角 282.545°
近地点: 1180.452km
远地点: 1183.118km
周期: 109.027分钟
每日圈数: 13.207695
详细信息
平衡模式:
三轴稳定
覆盖范围:
全球
运营商:
一网卫星公司
运营商所在国:
英国
制造商(研发单位):
一网卫星公司
制造商所在国:
英国
使用方式:
暂无
卫星简介
OneWeb卫星网络由648颗重约125公斤的微型卫星组成,运行在1200公里的轨道上。 每颗卫星都能够提供至少每秒8千兆位的吞吐量,以使用其高吞吐量的Ku频段有效载荷为家庭和移动平台提供互联网接入。该卫星仍在工作。
2D轨道图
3D轨道图
轨道高度分析图
轨道倾角分析图
轨道综合分析图
查看轨道综合分析图